DW6345 Murcia ES current weather conditions

sailwx.info

Wind from 173 at 4 knots gusting 6

Air temperature 8.3° C
Dewpoint 5.4° C

Last reported at 2017-Nov-20 07:10 UTC.
Time now 2017-Nov-20 07:33 UTC

Location: N 37°60' W 001°06'.
View on Google Maps.

See reports from other nearby stations

  
Tides and Currents Weather Stations Pressure Air Temp Water Temp Dewpoint Dewpoint Depression Visibility Wind Speed Wind Dir Waves Ship Positions
date/time (UTC)wind fromknots sea level pressurealtimeterstation pressurevisibilityair tempwater tempwave heightnotes
2017-Nov-20 07:10 173 4 gusting 6 8.3
2017-Nov-20 07:04 161 4 gusting 6 8.3
2017-Nov-20 07:00 175 4 gusting 6 8.3
2017-Nov-20 06:54 188 4 gusting 5 8.3
2017-Nov-20 06:49 180 4 gusting 5 8.3
2017-Nov-20 06:44 199 4 gusting 6 8.3
2017-Nov-20 06:40 187 4 gusting 6 8.3
2017-Nov-20 06:34 177 4 gusting 6 8.3
2017-Nov-20 06:29 176 4 gusting 6 8.3
2017-Nov-20 06:24 174 4 gusting 6 8.3
2017-Nov-20 06:20 183 4 gusting 6 8.3
2017-Nov-20 06:14 168 4 gusting 6 8.3
2017-Nov-20 06:09 169 4 gusting 6 8.3
2017-Nov-20 06:05 168 2 gusting 6 8.3
2017-Nov-20 06:00 167 2 gusting 5 8.3
2017-Nov-20 05:54 152 2 gusting 4 8.3
2017-Nov-20 05:49 190 2 gusting 4 8.3
2017-Nov-20 05:45 172 2 gusting 5 8.3
2017-Nov-20 05:39 183 2 gusting 5 8.3
2017-Nov-20 05:35 200 2 gusting 4 8.3
2017-Nov-20 05:30 211 2 gusting 4 8.3
2017-Nov-20 05:24 186 4 gusting 5 8.3
2017-Nov-20 05:20 195 4 gusting 5 8.3
2017-Nov-20 05:15 174 4 gusting 6 8.3
2017-Nov-20 05:10 170 4 gusting 6 8.3
2017-Nov-20 05:05 168 5 gusting 6 8.3
2017-Nov-20 05:00 171 5 gusting 6 8.3
2017-Nov-20 04:54 171 4 gusting 6 8.3
2017-Nov-20 04:49 174 4 gusting 6 8.3
2017-Nov-20 04:44 169 4 gusting 6 8.3
2017-Nov-20 04:40 174 4 gusting 5 8.3
2017-Nov-20 04:35 172 5 gusting 6 8.3
2017-Nov-20 04:30 162 5 gusting 6 8.3
2017-Nov-20 04:24 163 5 gusting 7 8.3
2017-Nov-20 04:20 171 4 gusting 7 8.3
2017-Nov-20 04:14 167 4 gusting 6 8.3
2017-Nov-20 04:10 157 4 gusting 6 8.3
2017-Nov-20 04:04 169 5 gusting 6 8.3
2017-Nov-20 04:00 159 4 gusting 6 8.3
2017-Nov-20 03:55 160 4 gusting 6 8.3
2017-Nov-20 03:50 159 4 gusting 6 8.3
2017-Nov-20 03:45 157 4 gusting 6 8.9
2017-Nov-20 03:40 148 3 gusting 6 8.9
2017-Nov-20 03:35 145 1 gusting 5 9.4
2017-Nov-20 03:29 162 2 gusting 4 9.4
2017-Nov-20 03:25 171 2 gusting 4 9.4
2017-Nov-20 03:20 183 2 gusting 4 9.4
2017-Nov-20 03:15 212 2 gusting 5 9.4
2017-Nov-20 03:10 202 2 gusting 4 9.4
2017-Nov-20 03:04 183 2 gusting 5 9.4
2017-Nov-20 03:00 158 2 gusting 4 9.4
2017-Nov-20 02:54 159 1 gusting 5 9.4
2017-Nov-20 02:49 179 1 gusting 4 8.9
2017-Nov-20 02:45 193 2 gusting 4 8.9
2017-Nov-20 02:40 194 2 gusting 4 8.9
2017-Nov-20 02:34 164 2 gusting 5 8.9
2017-Nov-20 02:30 158 2 gusting 5 9.4
2017-Nov-20 02:25 140 1 gusting 5 9.4
2017-Nov-20 02:20 133 1 gusting 4 10.0
2017-Nov-20 02:14 126 1 gusting 4 10.0
2017-Nov-20 02:10 130 1 gusting 2 10.0
2017-Nov-20 02:04 147 1 gusting 2 10.0
2017-Nov-20 02:00 160 1 gusting 2 10.6
2017-Nov-20 01:55 179 2 gusting 4 10.6
2017-Nov-20 01:50 164 2 gusting 4 10.6
2017-Nov-20 01:45 149 1 gusting 5 11.1
2017-Nov-20 01:40 195 1 gusting 5 11.1
2017-Nov-20 01:35 226 1 gusting 2 11.1
2017-Nov-20 01:30 236 1 gusting 2 11.1
2017-Nov-20 01:25 218 2 gusting 4 11.1
2017-Nov-20 01:20 219 2 gusting 4 11.1
2017-Nov-20 01:15 235 1 gusting 4 11.1
2017-Nov-20 01:10 224 1 gusting 5 11.1
2017-Nov-20 01:05 231 1 gusting 4 11.7
2017-Nov-20 01:00 227 2 gusting 4 11.7
2017-Nov-20 00:55 221 4 gusting 4 11.7
2017-Nov-20 00:50 213 4 gusting 4 11.7
2017-Nov-20 00:45 218 4 gusting 6 11.7
2017-Nov-20 00:40 205 4 gusting 6 11.7
2017-Nov-20 00:35 221 4 gusting 7 11.7
2017-Nov-20 00:30 209 4 gusting 6 11.7
2017-Nov-20 00:25 198 5 gusting 6 11.7
2017-Nov-20 00:20 205 5 gusting 6 11.7
2017-Nov-20 00:15 206 5 gusting 6 11.7
2017-Nov-20 00:10 204 5 gusting 7 11.7
2017-Nov-20 00:05 195 5 gusting 7 11.7
2017-Nov-20 00:00 200 4 gusting 8 11.7
2017-Nov-19 23:55 199 4 gusting 7 11.7
2017-Nov-19 23:50 197 4 gusting 6 11.7
2017-Nov-19 23:45 194 4 gusting 6 11.7
2017-Nov-19 23:40 195 3 gusting 6 11.7
2017-Nov-19 23:35 201 2 gusting 6 11.7
2017-Nov-19 23:30 205 2 gusting 5 11.7
2017-Nov-19 23:25 206 1 gusting 4 11.7
2017-Nov-19 23:20 190 1 gusting 5 12.2
2017-Nov-19 23:15 192 1 gusting 4 12.2
2017-Nov-19 23:10 190 1 gusting 2 12.2
2017-Nov-19 23:05 190 1 gusting 1 12.2
2017-Nov-19 23:00 190 1 gusting 1 12.2
2017-Nov-19 22:55 190 1 gusting 1 12.2
2017-Nov-19 22:50 190 1 gusting 1 12.2
2017-Nov-19 22:45 190 1 gusting 2 12.8
2017-Nov-19 22:40 190 1 gusting 2 12.8
2017-Nov-19 22:35 190 1 gusting 2 12.8
2017-Nov-19 22:30 190 1 gusting 4 12.8
2017-Nov-19 22:25 179 1 gusting 4 12.8
2017-Nov-19 22:20 175 1 gusting 4 12.8
2017-Nov-19 22:15 148 2 gusting 2 12.8
2017-Nov-19 22:10 158 2 gusting 4 12.8
2017-Nov-19 22:05 163 2 gusting 4 13.3
2017-Nov-19 22:00 180 2 gusting 4 13.3
2017-Nov-19 21:55 173 1 gusting 4 13.3
2017-Nov-19 21:50 181 2 gusting 4 13.3
2017-Nov-19 21:45 185 4 gusting 5 13.3
2017-Nov-19 21:40 178 4 gusting 4 13.3
2017-Nov-19 21:35 176 4 gusting 5 13.3
2017-Nov-19 21:30 173 3 gusting 5 13.3
2017-Nov-19 21:25 162 2 gusting 5 13.3
2017-Nov-19 21:20 165 2 gusting 4 13.3
2017-Nov-19 21:15 159 1 gusting 4 13.3
2017-Nov-19 21:10 174 1 gusting 4 13.3
2017-Nov-19 21:05 190 0 gusting 2 13.3
2017-Nov-19 21:00 190 0 gusting 2 13.3
2017-Nov-19 20:55 190 1 gusting 1 13.9
2017-Nov-19 20:50 190 1 gusting 1 13.9
2017-Nov-19 20:45 190 1 gusting 2 13.9
2017-Nov-19 20:40 190 1 gusting 2 13.9
2017-Nov-19 20:35 190 2 gusting 4 13.9
2017-Nov-19 20:30 190 2 gusting 4 14.4
2017-Nov-19 20:25 170 2 gusting 4 14.4
2017-Nov-19 20:20 174 2 gusting 4 14.4
2017-Nov-19 20:15 175 1 gusting 4 14.4
2017-Nov-19 20:10 165 1 gusting 4 14.4
2017-Nov-19 20:05 169 14.4
2017-Nov-19 20:00 155 0 14.4
2017-Nov-19 19:55 155 1 gusting 1 14.4
2017-Nov-19 19:50 155 1 gusting 1 14.4
2017-Nov-19 19:45 155 0 gusting 5 14.4
2017-Nov-19 19:40 143 0 gusting 5 14.4
2017-Nov-19 19:35 011 1 gusting 1 14.4
2017-Nov-19 19:30 011 1 gusting 1 15.0
2017-Nov-19 19:25 011 15.0
2017-Nov-19 19:20 011 15.0
2017-Nov-19 19:15 011 0 gusting 1 15.0
2017-Nov-19 19:10 011 0 gusting 1 15.6
2017-Nov-19 19:05 009 0 gusting 1 15.6
2017-Nov-19 19:00 083 0 gusting 1 15.6
2017-Nov-19 18:55 083 1 gusting 1 15.6
2017-Nov-19 18:50 083 1 gusting 1 16.1
2017-Nov-19 18:45 090 1 gusting 2 16.1
2017-Nov-19 18:40 117 1 gusting 4 16.1
2017-Nov-19 18:35 111 1 gusting 4 16.1
2017-Nov-19 18:30 115 1 gusting 5 16.1
2017-Nov-19 18:25 120 1 gusting 5 16.7
2017-Nov-19 18:20 092 2 gusting 4 16.7
2017-Nov-19 18:15 135 4 gusting 5 16.7
2017-Nov-19 18:10 118 4 gusting 6 16.7
2017-Nov-19 18:05 115 4 gusting 6 16.7
2017-Nov-19 18:00 121 4 gusting 6 17.2
2017-Nov-19 17:55 119 5 gusting 6 17.2
2017-Nov-19 17:50 114 5 gusting 6 17.2
2017-Nov-19 17:45 117 5 gusting 8 17.2
2017-Nov-19 17:40 117 4 gusting 8 17.8
2017-Nov-19 17:35 101 4 gusting 6 17.8
2017-Nov-19 17:30 105 3 gusting 6 17.8
2017-Nov-19 17:25 094 2 gusting 6 18.3
2017-Nov-19 17:20 098 2 gusting 5 18.3
2017-Nov-19 17:15 105 2 gusting 4 18.3
2017-Nov-19 17:10 097 2 gusting 4 18.3
2017-Nov-19 17:05 104 1 gusting 4 18.3
2017-Nov-19 17:00 076 1 gusting 4 18.9
2017-Nov-19 16:55 084 1 gusting 4 18.9
2017-Nov-19 16:50 088 1 gusting 4 18.9
2017-Nov-19 16:45 048 1 gusting 4 19.4
2017-Nov-19 16:40 028 1 gusting 4 19.4
2017-Nov-19 16:35 020 1 gusting 2 19.4
2017-Nov-19 16:30 020 1 gusting 2 19.4
2017-Nov-19 16:25 020 1 gusting 2 19.4
2017-Nov-19 16:20 020 2 gusting 4 19.4
2017-Nov-19 16:15 014 2 gusting 4 19.4
2017-Nov-19 16:10 018 2 gusting 4 19.4
2017-Nov-19 16:05 014 2 gusting 4 19.4
2017-Nov-19 16:00 332 2 gusting 4 19.4
2017-Nov-19 15:55 011 1 gusting 4 20.0
2017-Nov-19 15:50 008 1 gusting 4 20.0
2017-Nov-19 15:45 328 1 gusting 4 20.0
2017-Nov-19 15:40 023 1 gusting 4 20.0
2017-Nov-19 15:35 029 1 gusting 4 20.0
2017-Nov-19 15:30 028 1 gusting 4 20.0
2017-Nov-19 15:25 028 1 gusting 2 20.0
2017-Nov-19 15:20 031 1 gusting 2 20.0
2017-Nov-19 15:15 346 1 gusting 2 20.0
2017-Nov-19 15:10 004 1 gusting 4 20.0
2017-Nov-19 15:05 025 1 gusting 4 20.0
2017-Nov-19 15:00 035 1 gusting 4 20.6
2017-Nov-19 14:55 306 0 gusting 2 20.0
2017-Nov-19 14:50 034 0 gusting 1 20.0
2017-Nov-19 14:45 034 1 gusting 1 20.0
2017-Nov-19 14:40 033 1 gusting 1 19.4
2017-Nov-19 14:35 033 1 gusting 4 19.4
2017-Nov-19 14:30 060 1 gusting 4 19.4
2017-Nov-19 14:25 032 1 gusting 4 20.0
2017-Nov-19 14:20 023 1 gusting 2 20.0
2017-Nov-19 14:15 037 1 gusting 4 20.0
2017-Nov-19 14:10 006 1 gusting 2 20.0
2017-Nov-19 14:05 300 1 gusting 2 19.4
2017-Nov-19 14:00 223 1 gusting 2 19.4
2017-Nov-19 13:55 341 1 gusting 2 19.4
2017-Nov-19 13:50 016 1 gusting 2 19.4
2017-Nov-19 13:45 006 1 gusting 4 19.4
2017-Nov-19 13:40 050 1 gusting 4 19.4
2017-Nov-19 13:35 281 1 gusting 2 18.9
2017-Nov-19 13:30 272 1 gusting 1 18.9
2017-Nov-19 13:25 291 1 gusting 2 18.9
2017-Nov-19 13:20 339 1 gusting 4 18.3
2017-Nov-19 13:15 029 1 gusting 4 18.3
2017-Nov-19 13:10 322 1 gusting 4 18.3
2017-Nov-19 13:05 299 1 gusting 5 18.3
2017-Nov-19 13:00 140 1 gusting 5 18.3
2017-Nov-19 12:55 126 1 gusting 5 18.3
2017-Nov-19 12:50 184 2 gusting 5 18.3
2017-Nov-19 12:45 145 2 gusting 4 17.8
2017-Nov-19 12:40 183 2 gusting 5 17.8
2017-Nov-19 12:35 177 4 gusting 6 17.2
2017-Nov-19 12:30 184 4 gusting 6 17.2
2017-Nov-19 12:25 180 4 gusting 7 17.2
2017-Nov-19 12:20 150 3 gusting 7 17.2
2017-Nov-19 12:15 155 2 gusting 6 17.2
2017-Nov-19 12:10 173 2 gusting 5 17.2
2017-Nov-19 12:05 166 2 gusting 5 17.2
2017-Nov-19 12:00 163 2 gusting 4 16.7
2017-Nov-19 11:55 164 4 gusting 5 16.7
2017-Nov-19 11:50 182 4 gusting 5 16.7
2017-Nov-19 11:45 203 4 gusting 6 16.7
2017-Nov-19 11:40 162 3 gusting 6 16.1
2017-Nov-19 11:35 188 2 gusting 6 16.1
2017-Nov-19 11:30 187 2 gusting 5 16.1
2017-Nov-19 11:25 190 2 gusting 5 15.6
2017-Nov-19 11:20 193 2 gusting 5 15.6
2017-Nov-19 11:15 217 4 gusting 6 15.6
2017-Nov-19 11:10 190 4 gusting 6 15.0
2017-Nov-19 11:05 177 4 gusting 5 15.0
2017-Nov-19 11:00 183 4 gusting 5 14.4
2017-Nov-19 10:55 191 4 gusting 6 14.4
2017-Nov-19 10:50 164 4 gusting 6 14.4
2017-Nov-19 10:45 191 4 gusting 6 14.4
2017-Nov-19 10:40 196 4 gusting 6 13.9
2017-Nov-19 10:35 235 4 gusting 5 13.9
2017-Nov-19 10:30 199 3 gusting 6 13.9
2017-Nov-19 10:25 227 2 gusting 6 13.3
2017-Nov-19 10:20 215 2 gusting 6 13.3
2017-Nov-19 10:15 245 4 gusting 6 13.3
2017-Nov-19 10:10 213 4 gusting 6 12.8
2017-Nov-19 10:05 181 4 gusting 6 12.8
2017-Nov-19 10:00 196 4 gusting 6 12.8
2017-Nov-19 09:55 178 4 gusting 6 12.2
2017-Nov-19 09:50 216 4 gusting 5 12.2
2017-Nov-19 09:45 224 4 gusting 6 12.2
2017-Nov-19 09:40 214 4 gusting 6 11.7
2017-Nov-19 09:35 190 4 gusting 6 11.7
2017-Nov-19 09:30 185 3 gusting 6 11.7
2017-Nov-19 09:25 186 2 gusting 5 11.1
2017-Nov-19 09:20 170 2 gusting 5 11.1
2017-Nov-19 09:15 204 2 gusting 6 11.1
2017-Nov-19 09:10 184 2 gusting 5 10.6
2017-Nov-19 09:05 217 2 gusting 5 10.6
2017-Nov-19 09:00 182 2 gusting 5 10.6
2017-Nov-19 08:55 169 2 gusting 5 10.0
2017-Nov-19 08:50 181 2 gusting 5 10.0
2017-Nov-19 08:45 185 2 gusting 5 9.4
2017-Nov-19 08:40 161 2 gusting 4 9.4
2017-Nov-19 08:35 169 2 gusting 4 8.9
2017-Nov-19 08:30 155 2 gusting 5 8.9
2017-Nov-19 08:25 160 4 gusting 5 8.9
2017-Nov-19 08:20 192 4 gusting 4 8.9
2017-Nov-19 08:15 172 4 gusting 5 8.9
2017-Nov-19 08:10 172 4 gusting 5 8.9
2017-Nov-19 08:05 198 4 gusting 6 8.9
2017-Nov-19 08:00 188 4 gusting 6 8.9
2017-Nov-19 07:55 208 4 gusting 5 8.9
2017-Nov-19 07:50 204 4 gusting 6 8.9
2017-Nov-19 07:45 180 4 gusting 5 8.9
2017-Nov-19 07:40 201 4 gusting 5 8.3
2017-Nov-19 07:35 196 4 gusting 5 8.3
2017-Nov-19 07:30 189 4 gusting 5 8.3
2017-Nov-19 07:25 192 4 gusting 5 8.3
2017-Nov-19 07:20 198 4 gusting 5 8.3
2017-Nov-19 07:15 202 4 gusting 5 8.3
2017-Nov-19 07:10 197 4 gusting 6 8.3
2017-Nov-19 07:05 183 4 gusting 6 8.3
2017-Nov-19 07:00 166 3 gusting 5 8.3
2017-Nov-19 06:55 167 2 gusting 6 8.3
2017-Nov-19 06:50 169 2 gusting 5 8.3
2017-Nov-19 06:45 156 2 gusting 5 8.3
2017-Nov-19 06:40 182 2 gusting 4 8.3
2017-Nov-19 06:35 191 2 gusting 5 8.3
2017-Nov-19 06:30 193 2 gusting 5 8.3
2017-Nov-19 06:25 170 4 gusting 4 8.3
2017-Nov-19 06:20 174 4 gusting 6 8.3
2017-Nov-19 06:15 164 4 gusting 6 8.3
2017-Nov-19 06:10 159 4 gusting 6 8.3
2017-Nov-19 06:05 168 4 gusting 6 8.3
2017-Nov-19 06:00 165 4 gusting 6 8.3
2017-Nov-19 05:55 167 4 gusting 6 8.3
2017-Nov-19 05:50 166 4 gusting 6 8.3
2017-Nov-19 05:45 172 4 gusting 6 8.3
2017-Nov-19 05:40 171 4 gusting 5 8.3
2017-Nov-19 05:35 170 4 gusting 5 8.3
2017-Nov-19 05:30 166 4 gusting 6 8.3
2017-Nov-19 05:25 154 4 gusting 5 8.3
2017-Nov-19 05:20 162 4 gusting 5 8.3
2017-Nov-19 05:15 147 4 gusting 5 8.3
2017-Nov-19 05:10 152 4 gusting 5 8.3
2017-Nov-19 05:05 159 4 gusting 5 8.3
2017-Nov-19 05:00 154 3 gusting 5 8.3
2017-Nov-19 04:55 153 2 gusting 5 8.3
2017-Nov-19 04:50 152 2 gusting 5 8.3
2017-Nov-19 04:45 139 1 gusting 4 8.9
2017-Nov-19 04:40 156 1 gusting 4 8.9
2017-Nov-19 04:35 156 1 gusting 4 8.9
2017-Nov-19 04:30 170 2 gusting 4 8.9
2017-Nov-19 04:25 152 2 gusting 4 9.4
2017-Nov-19 04:20 145 2 gusting 4 9.4
2017-Nov-19 04:15 160 2 gusting 5 10.0
2017-Nov-19 04:10 157 2 gusting 4 10.0
2017-Nov-19 04:05 205 4 gusting 4 10.0
2017-Nov-19 04:00 218 4 gusting 6 10.0
2017-Nov-19 03:55 227 5 gusting 6 10.0
2017-Nov-19 03:50 236 5 gusting 6 10.0
2017-Nov-19 03:45 222 4 gusting 6 10.0
2017-Nov-19 03:40 223 4 gusting 7 10.0
2017-Nov-19 03:35 222 4 gusting 6 10.0
2017-Nov-19 03:30 196 4 gusting 6 10.0
2017-Nov-19 03:25 200 4 gusting 6 9.4
2017-Nov-19 03:20 197 4 gusting 6 9.4
2017-Nov-19 03:15 192 4 gusting 6 9.4
2017-Nov-19 03:10 187 4 gusting 6 9.4
2017-Nov-19 03:05 191 4 gusting 6 9.4
2017-Nov-19 03:00 180 3 gusting 5 9.4
2017-Nov-19 02:55 175 2 gusting 5 9.4
2017-Nov-19 02:50 187 2 gusting 5 9.4
2017-Nov-19 02:45 177 4 gusting 6 9.4
2017-Nov-19 02:40 178 4 gusting 6 9.4
2017-Nov-19 02:35 156 4 gusting 5 9.4
2017-Nov-19 02:30 156 3 gusting 5 9.4
2017-Nov-19 02:25 150 1 gusting 5 10.0
2017-Nov-19 02:20 142 1 gusting 4 10.0
2017-Nov-19 02:15 158 1 gusting 4 10.0
2017-Nov-19 02:10 171 1 gusting 2 10.0
2017-Nov-19 02:05 186 1 gusting 4 10.0
2017-Nov-19 02:00 211 1 gusting 4 10.0
2017-Nov-19 01:55 209 2 gusting 4 10.0
2017-Nov-19 01:50 201 2 gusting 4 10.6
2017-Nov-19 01:45 193 2 gusting 4 10.6
2017-Nov-19 01:40 200 2 gusting 4 10.6
2017-Nov-19 01:35 180 4 gusting 4 10.6
2017-Nov-19 01:30 169 4 gusting 5 10.6
2017-Nov-19 01:25 172 4 gusting 5 10.6
2017-Nov-19 01:20 161 3 gusting 5 10.6
2017-Nov-19 01:15 160 1 gusting 5 10.6
2017-Nov-19 01:10 162 1 gusting 4 10.0
2017-Nov-19 01:05 162 2 gusting 2 10.0
2017-Nov-19 01:00 177 2 gusting 4 10.0
2017-Nov-19 00:55 165 1 gusting 5 10.0
2017-Nov-19 00:50 156 1 gusting 4 10.0
2017-Nov-19 00:45 130 1 gusting 4 10.6
2017-Nov-19 00:40 116 1 gusting 2 10.6
2017-Nov-19 00:35 168 10.6
2017-Nov-19 00:30 168 10.6
2017-Nov-19 00:25 168 10.6
2017-Nov-19 00:20 168 11.1
2017-Nov-19 00:15 168 0 gusting 1 11.1
2017-Nov-19 00:10 168 1 gusting 1 11.1
2017-Nov-19 00:05 168 1 gusting 1 11.1
2017-Nov-18 23:59 168 1 gusting 4 11.1
2017-Nov-18 23:54 179 1 gusting 4 11.1
2017-Nov-18 23:49 161 1 gusting 4 11.1
2017-Nov-18 23:44 176 1 gusting 4 11.1
2017-Nov-18 23:39 171 1 gusting 2 11.1
2017-Nov-18 23:34 171 1 gusting 2 11.1
2017-Nov-18 23:29 171 1 gusting 2 11.1
2017-Nov-18 23:24 159 1 gusting 2 11.7
2017-Nov-18 23:19 165 1 gusting 4 11.7
2017-Nov-18 23:14 144 1 gusting 4 11.7
2017-Nov-18 23:09 133 1 gusting 4 11.7
2017-Nov-18 23:04 133 0 gusting 2 11.7
2017-Nov-18 22:59 213 0 gusting 1 11.7
2017-Nov-18 22:54 213 11.7
2017-Nov-18 22:49 213 0 gusting 1 12.2
2017-Nov-18 22:44 213 1 gusting 1 12.2
2017-Nov-18 22:39 213 1 gusting 2 12.2
2017-Nov-18 22:34 213 1 gusting 2 12.2
2017-Nov-18 22:29 213 0 gusting 2 12.2
2017-Nov-18 22:24 213 12.2
2017-Nov-18 22:19 260 12.2
2017-Nov-18 22:14 260 12.2
2017-Nov-18 22:09 260 0 12.2
2017-Nov-18 22:04 260 0 gusting 1 12.2
2017-Nov-18 21:59 260 0 gusting 1 12.2
2017-Nov-18 21:54 260 12.2
2017-Nov-18 21:49 260 12.8
2017-Nov-18 21:44 260 12.8
2017-Nov-18 21:39 260 12.8
2017-Nov-18 21:34 260 12.8
2017-Nov-18 21:29 260 0 12.8
2017-Nov-18 21:24 260 0 13.3
2017-Nov-18 21:19 260 0 gusting 1 13.3
2017-Nov-18 21:14 260 13.3
2017-Nov-18 21:09 260 0 gusting 2 13.3
2017-Nov-18 21:04 260 0 13.3
2017-Nov-18 20:59 260 0 gusting 1 13.3
2017-Nov-18 20:54 260 13.3
2017-Nov-18 20:49 260 13.9
2017-Nov-18 20:44 260 13.9
2017-Nov-18 20:39 260 0 gusting 1 13.9
2017-Nov-18 20:34 260 0 13.9
2017-Nov-18 20:29 260 0 gusting 1 13.9
2017-Nov-18 20:24 260 0 gusting 1 13.9
2017-Nov-18 20:19 260 0 gusting 1 13.9
2017-Nov-18 20:14 260 13.9
2017-Nov-18 20:09 260 0 gusting 0 13.9
2017-Nov-18 20:04 260 1 gusting 1 13.9
2017-Nov-18 19:59 260 1 gusting 2 13.9
2017-Nov-18 19:54 260 1 gusting 4 13.9
2017-Nov-18 19:49 260 2 gusting 4 14.4
2017-Nov-18 19:44 260 2 gusting 4 14.4
2017-Nov-18 19:39 265 2 gusting 4 14.4
2017-Nov-18 19:34 269 1 gusting 4 14.4
2017-Nov-18 19:29 284 1 gusting 4 14.4
2017-Nov-18 19:24 285 1 gusting 4 14.4
2017-Nov-18 19:19 286 1 gusting 2 14.4
2017-Nov-18 19:14 355 0 gusting 2 14.4
2017-Nov-18 19:09 007 1 gusting 1 14.4
2017-Nov-18 19:04 007 1 gusting 1 14.4
2017-Nov-18 18:59 007 1 gusting 1 15.0
2017-Nov-18 18:54 007 1 gusting 4 15.0
2017-Nov-18 18:49 006 2 gusting 4 15.0
2017-Nov-18 18:44 007 2 gusting 4 15.6
2017-Nov-18 18:39 015 2 gusting 4 15.6
2017-Nov-18 18:34 038 4 gusting 4 16.1
2017-Nov-18 18:29 063 2 gusting 5 16.1
2017-Nov-18 18:24 039 2 gusting 6 16.1
2017-Nov-18 18:19 041 2 gusting 5 16.1
2017-Nov-18 18:14 035 1 gusting 4 16.1
2017-Nov-18 18:09 044 1 gusting 4 16.1
2017-Nov-18 18:04 068 1 gusting 4 16.7
2017-Nov-18 17:59 063 3 gusting 2 16.7
2017-Nov-18 17:54 034 4 gusting 4 16.7
2017-Nov-18 17:49 097 4 gusting 6 16.7
2017-Nov-18 17:44 108 5 gusting 6 16.7
2017-Nov-18 17:39 118 5 gusting 8 16.7
2017-Nov-18 17:34 116 5 gusting 8 17.2
2017-Nov-18 17:29 117 5 gusting 7 17.2
2017-Nov-18 17:24 121 5 gusting 7 17.2
2017-Nov-18 17:19 121 5 gusting 6 17.2
2017-Nov-18 17:14 118 5 gusting 8 17.2
2017-Nov-18 17:09 118 5 gusting 6 17.2
2017-Nov-18 17:04 111 5 gusting 10 17.8
2017-Nov-18 16:59 111 5 gusting 8 17.8
2017-Nov-18 16:54 111 6 gusting 8 17.8
2017-Nov-18 16:49 110 6 gusting 8 18.3
2017-Nov-18 16:44 117 6 gusting 10 18.3
2017-Nov-18 16:39 113 6 gusting 10 18.3
2017-Nov-18 16:34 118 6 gusting 7 18.3
2017-Nov-18 16:29 114 6 gusting 11 18.9
2017-Nov-18 16:24 123 6 gusting 7 18.9
2017-Nov-18 16:19 116 6 gusting 10 18.9
2017-Nov-18 16:14 116 6 gusting 10 19.4
2017-Nov-18 16:09 119 6 gusting 10 19.4
2017-Nov-18 16:04 121 6 gusting 8 19.4
2017-Nov-18 15:59 110 6 gusting 11 19.4
2017-Nov-18 15:54 112 6 gusting 10 19.4
2017-Nov-18 15:49 115 6 gusting 11 20.0
2017-Nov-18 15:44 115 6 gusting 10 20.0
2017-Nov-18 15:39 122 5 gusting 7 20.0
2017-Nov-18 15:34 126 5 gusting 8 20.6
2017-Nov-18 15:29 126 5 gusting 6 20.6
2017-Nov-18 15:24 112 5 gusting 8 20.6
2017-Nov-18 15:19 112 5 gusting 8 20.6
2017-Nov-18 15:14 102 4 gusting 7 20.6
2017-Nov-18 15:09 104 4 gusting 7 20.6
2017-Nov-18 15:04 093 5 gusting 7 20.6
2017-Nov-18 14:59 106 5 gusting 7 20.6
2017-Nov-18 14:54 110 5 gusting 7 20.6
2017-Nov-18 14:49 126 4 gusting 7 20.6
2017-Nov-18 14:44 116 4 gusting 7 20.6
2017-Nov-18 14:39 065 4 gusting 6 20.6
2017-Nov-18 14:34 084 4 gusting 6 20.6
2017-Nov-18 14:29 083 2 gusting 5 20.6
2017-Nov-18 14:24 041 2 gusting 6 20.6
2017-Nov-18 14:19 034 2 gusting 5 20.6
2017-Nov-18 14:14 040 4 gusting 6 20.0
2017-Nov-18 14:09 026 4 gusting 5 20.0
2017-Nov-18 14:04 044 4 gusting 6 20.0
2017-Nov-18 13:59 027 4 gusting 6 20.0
2017-Nov-18 13:54 024 4 gusting 6 19.4
2017-Nov-18 13:49 028 4 gusting 5 19.4
2017-Nov-18 13:44 013 4 gusting 6 19.4
2017-Nov-18 13:39 013 2 gusting 5 19.4
2017-Nov-18 13:34 040 1 gusting 6 19.4
2017-Nov-18 13:29 041 1 gusting 6 19.4
2017-Nov-18 13:24 030 1 gusting 4 19.4
2017-Nov-18 13:19 010 1 gusting 5 19.4
2017-Nov-18 13:14 050 1 gusting 4 18.9
2017-Nov-18 13:09 042 1 gusting 4 18.9
2017-Nov-18 13:04 348 1 gusting 4 18.9
2017-Nov-18 12:59 298 1 gusting 2 18.9
2017-Nov-18 12:54 024 1 gusting 1 18.9
2017-Nov-18 12:49 018 1 gusting 2 18.3
2017-Nov-18 12:44 027 1 gusting 2 18.3
2017-Nov-18 12:39 263 1 gusting 2 18.3
2017-Nov-18 12:34 256 1 gusting 4 17.8
2017-Nov-18 12:29 244 1 gusting 2 17.8
2017-Nov-18 12:24 263 1 gusting 4 17.8
2017-Nov-18 12:19 264 1 gusting 4 17.8
2017-Nov-18 12:14 289 1 gusting 4 17.2
2017-Nov-18 12:09 270 1 gusting 4 17.2
2017-Nov-18 12:04 260 1 gusting 5 17.2
2017-Nov-18 11:59 276 1 gusting 4 17.2
2017-Nov-18 11:54 206 1 gusting 4 17.2
2017-Nov-18 11:49 233 1 gusting 4 16.7
2017-Nov-18 11:44 258 1 gusting 4 16.7
2017-Nov-18 11:39 249 1 gusting 4 16.7
2017-Nov-18 11:34 280 1 gusting 4 16.1
2017-Nov-18 11:29 186 1 gusting 4 16.1
2017-Nov-18 11:24 269 1 gusting 5 16.1
2017-Nov-18 11:19 248 2 gusting 5 16.1
2017-Nov-18 11:14 208 2 gusting 2 15.6
2017-Nov-18 11:09 233 2 gusting 5 15.0
2017-Nov-18 11:04 207 1 gusting 5 15.0
2017-Nov-18 10:59 187 2 gusting 4 15.0
2017-Nov-18 10:54 198 2 gusting 4 14.4
2017-Nov-18 10:49 221 2 gusting 5 14.4
2017-Nov-18 10:44 130 4 gusting 5 13.9
2017-Nov-18 10:39 216 4 gusting 5 13.9
2017-Nov-18 10:29 176 4 gusting 6 13.3
2017-Nov-18 10:24 213 4 gusting 6 13.3
2017-Nov-18 10:19 204 4 gusting 6 13.3
2017-Nov-18 10:14 207 4 gusting 6 13.3
2017-Nov-18 10:09 164 4 gusting 6 12.8
2017-Nov-18 10:04 194 4 gusting 6 12.8
2017-Nov-18 09:59 170 4 gusting 6 12.8
2017-Nov-18 09:54 174 4 gusting 5 12.2
2017-Nov-18 09:49 210 3 gusting 6 12.2
2017-Nov-18 09:44 191 2 gusting 5 12.2
2017-Nov-18 09:39 226 2 gusting 6 11.7
2017-Nov-18 09:34 238 4 gusting 5 11.7
2017-Nov-18 09:29 190 3 gusting 5 11.7
2017-Nov-18 09:24 179 2 gusting 5 11.1
2017-Nov-18 09:19 190 2 gusting 5 11.1
2017-Nov-18 09:14 228 4 gusting 5 10.6
2017-Nov-18 09:09 207 4 gusting 5 10.6
2017-Nov-18 09:04 217 4 gusting 6 10.0
2017-Nov-18 08:59 218 4 gusting 6 10.0
2017-Nov-18 08:54 182 4 gusting 6 10.0
2017-Nov-18 08:49 171 4 gusting 6 10.0
2017-Nov-18 08:44 184 5 gusting 6 9.4
2017-Nov-18 08:39 186 5 gusting 6 9.4
2017-Nov-18 08:34 200 5 gusting 6 9.4
2017-Nov-18 08:29 191 5 gusting 7 9.4
2017-Nov-18 08:24 185 5 gusting 7 8.9
2017-Nov-18 08:19 186 4 gusting 6 8.9
2017-Nov-18 08:14 184 4 gusting 6 8.9
2017-Nov-18 08:09 195 3 gusting 6 8.9
2017-Nov-18 08:04 197 2 gusting 6 8.9
2017-Nov-18 07:59 204 2 gusting 6 8.3
2017-Nov-18 07:54 174 4 gusting 5 8.3
2017-Nov-18 07:49 178 4 gusting 5 8.3
2017-Nov-18 07:44 172 4 gusting 5 7.8
2017-Nov-18 07:39 171 4 gusting 6 7.8
2017-Nov-18 07:34 165 4 gusting 6 7.8
2017-Nov-18 07:29 158 4 gusting 5 7.8
2017-Nov-18 07:24 163 4 gusting 5 7.8
2017-Nov-18 07:19 156 3 gusting 5 7.8
2017-Nov-18 07:14 152 2 gusting 5 7.8
2017-Nov-18 07:09 163 2 gusting 5 7.8
2017-Nov-18 07:04 155 2 gusting 5 7.8